www.pogodaiklimat.ru
ПОГОДА в Сукоке

Архив погоды в Сукоке (Ташкентская область, Узбекистан)

Время
и дата
01:20 17.04
01:30 17.04
01:40 17.04
01:50 17.04
02:00 17.04
02:10 17.04
02:20 17.04
02:30 17.04
02:40 17.04
02:50 17.04
03:00 17.04
03:10 17.04
03:20 17.04
03:30 17.04
03:40 17.04
03:50 17.04
04:00 17.04
04:20 17.04
04:30 17.04
04:40 17.04
04:50 17.04
05:20 17.04
05:30 17.04
05:40 17.04
05:50 17.04
06:00 17.04
06:10 17.04
06:20 17.04
06:30 17.04
06:40 17.04
06:50 17.04
07:00 17.04
07:10 17.04
07:20 17.04
08:30 17.04
08:50 17.04
16:20 17.04
16:40 17.04
16:50 17.04
17:00 17.04
17:10 17.04
17:20 17.04
17:30 17.04
17:40 17.04
18:00 17.04
18:10 17.04
18:20 17.04
18:30 17.04
18:40 17.04
18:50 17.04
19:00 17.04
19:10 17.04
19:20 17.04
19:30 17.04
19:40 17.04
19:50 17.04
20:00 17.04
20:10 17.04
20:30 17.04
20:40 17.04
20:50 17.04
21:00 17.04
21:10 17.04
21:20 17.04
21:30 17.04
21:40 17.04
21:50 17.04
22:10 17.04
22:20 17.04
22:30 17.04
22:40 17.04
22:50 17.04
23:00 17.04
23:10 17.04
23:20 17.04
23:30 17.04
23:40 17.04
23:50 17.04
00:00 18.04
00:10 18.04
00:40 18.04
00:50 18.04
01:00 18.04
01:10 18.04
01:20 18.04
01:30 18.04
01:40 18.04
01:50 18.04
02:00 18.04
02:10 18.04
02:20 18.04
02:30 18.04
02:40 18.04
02:50 18.04
03:00 18.04
03:10 18.04
03:20 18.04
03:40 18.04
03:50 18.04
04:00 18.04
04:10 18.04
04:20 18.04
04:30 18.04
04:40 18.04
04:50 18.04
05:00 18.04
05:40 18.04
05:50 18.04
06:00 18.04
06:10 18.04
06:20 18.04
06:30 18.04
06:40 18.04
07:00 18.04
07:10 18.04
07:30 18.04
07:40 18.04
07:50 18.04
08:00 18.04
08:10 18.04
08:20 18.04
10:50 18.04
11:30 18.04
12:10 20.04
12:20 20.04
12:50 20.04
13:00 20.04
13:20 20.04
13:30 20.04
13:40 20.04
14:10 20.04
15:10 20.04
15:30 20.04
15:40 20.04
15:50 20.04
16:00 20.04
16:20 20.04
17:00 20.04
17:40 20.04
18:00 20.04
18:20 20.04
18:30 20.04
18:50 20.04
19:00 20.04
Ветер
(напр.,м/с)
Видимость Явления Солнечная радиация
(Вт/м2)
Т
(С)
Тd
(С)
f
(%)
Тe
(С)
Тes
(С)
Комфортность P
(гПа)
Po
(гПа)
Тmin
(С)
Tmax
(С)
R
(мм)
В 2.0
{3.8}
+6.2 +6.2 100 +4 +4 1025.4 871.7 +6.2 +6.0
В 1.7
{3.7}
+6.1 +6.1 100 +4 +4 1025.1 871.5 +6.2 +6.1
В 2.1
{3.9}
+6.3 +6.3 100 +4 +4 1024.8 871.2 +6.3 +6.1
В 2.0
{3.5}
+6.4 -11.9 26 +5 +5 1024.8 871.2 +6.5 +6.3
В 1.6
{3.5}
+6.0 -12.3 26 +5 +5 1024.7 871.1 +6.4 +6.0
В 2.4
{4.3}
+6.2 +6.2 100 +3 +3 1024.6 871.0 +6.3 +5.9
В 1.8
{3.5}
+6.0 +6.0 100 +4 +4 1024.5 870.9 +6.3 +6.0
В 2.0
{3.8}
+6.0 +6.0 100 +3 +3 1024.5 870.9 +6.0 +5.9
В 1.6
{3.3}
+5.7 +5.7 100 +3 +3 1024.3 870.8 +6.0 +5.7
В 1.9
{3.7}
+5.8 -12.4 26 +5 +5 1024.2 870.7 +5.8 +5.5
В 2.4
{4.0}
+6.1 +6.1 100 +3 +3 1024.1 870.6 +6.1 +5.8
В 2.1
{4.4}
+5.8 +5.8 100 +3 +3 1024.0 870.5 +6.2 +5.8
В 2.5
{4.2}
+6.1 +6.1 100 +3 +3 1023.9 870.4 +6.1 +5.8
В 1.7
{4.0}
+5.7 +5.7 100 +3 +3 1023.8 870.3 +6.1 +5.7
В 2.2
{4.1}
+6.0 -12.2 26 +4 +4 1023.7 870.2 +6.2 +5.7
В 2.2
{4.0}
+6.3 +6.3 100 +4 +4 1023.5 870.1 +6.4 +6.0
В 2.0
{3.7}
+6.1 +6.1 100 +3 +3 1023.5 870.1 +6.3 +5.9
В 2.1
{4.1}
+5.9 +5.9 100 +3 +3 1023.5 870.1 +6.2 +5.8
В 2.0
{3.5}
+5.8 +5.8 100 +3 +3 1023.4 870.0 +6.0 +5.8
В 2.1
{3.8}
+6.0 +6.0 100 +3 +3 1023.3 869.9 +6.4 +5.8
В 1.4
{2.7}
+5.5 +5.5 100 +3 +3 1023.4 870.0 +6.0 +5.5
В 2.0
{3.7}
+5.7 +5.7 100 +3 +3 1023.9 870.4 +5.7 +5.3
В 1.9
{3.6}
+5.7 -12.5 26 +4 +4 1024.1 870.6 +5.7 +5.5
В 1.8
{3.1}
+5.8 -12.4 26 +5 +5 1024.2 870.7 +5.9 +5.7
В 1.9
{3.1}
+5.7 -12.5 26 +4 +4 1024.3 870.8 +5.8 +5.5
В 1.7
{3.2}
+5.6 +5.6 100 +3 +3 1024.6 871.0 +5.8 +5.6
В 2.1
{3.5}
+5.9 +5.9 100 +3 +3 1024.7 871.1 +6.1 +5.6
В 1.8
{3.4}
+5.9 +5.9 100 +3 +3 1024.7 871.1 +6.0 +5.8
В 2.2
{3.8}
+6.2 -12.0 26 +5 +5 1024.7 871.1 +6.2 +5.8
В 2.5
{3.7}
+6.3 +6.3 100 +3 +3 1024.7 871.1 +6.3 +6.2
В 2.2
{3.9}
+6.2 +6.2 100 +3 +3 1024.8 871.2 +6.3 +6.0
В 2.1
{3.9}
+6.5 +6.5 100 +4 +4 1024.8 871.2 +6.5 +6.2
В 1.6
{3.8}
+6.7 +6.7 100 +5 +5 1024.8 871.2 +6.7 +6.5
В 2.0
{3.3}
+7.7 +7.7 100 +5 +5 1024.8 871.2 +7.7 +6.7
ЮЗ 1.0
{2.0}
+11.5 +9.9 90 +11 +11 1024.6 871.0 +11.6 +11.3
З 1.1
{2.8}
+12.6 +10.9 90 +12 +12 1024.6 871.0 +12.6 +11.9
З 2.0
{5.0}
+16.6 +8.0 57 +17 +17 1021.7 868.5 +16.8 +16.6
З 1.5
{4.3}
+16.1 +8.1 59 +17 +17 1021.5 868.3 +17.0 +16.1
ЮЗ 1.7
{4.2}
+16.0 +8.2 60 +16 +16 1021.5 868.3 +16.1 +15.8
З 1.8
{4.1}
+16.0 +8.0 59 +16 +16 1021.5 868.3 +16.0 +15.9
З 1.5
{2.9}
+15.6 +7.0 56 +16 +16 1021.5 868.3 +16.1 +15.6
З 1.2
{3.6}
+15.9 +7.8 59 +17 +17 1021.5 868.3 +15.9 +15.6
ЮЗ 1.6
{3.5}
+15.3 +8.3 63 +15 +15 1021.4 868.2 +15.9 +15.3
З 1.4
{3.7}
+15.1 +9.2 68 +15 +15 1021.4 868.2 +15.3 +15.0
З 1.1
{3.2}
+14.4 +9.0 70 +15 +15 1021.1 868.0 +14.9 +14.5
ЮЗ 1.0
{2.6}
+14.2 +11.2 82 +15 +15 1021.1 868.0 +14.4 +14.2
З 0.8
{1.9}
+14.0 +10.6 80 +15 +15 1021.1 868.0 +14.2 +14.0
ЮЗ 0.5
{1.2}
+13.8 +11.3 85 +15 +15 1021.1 868.0 +14.0 +13.8
СЗ 0.8
{1.8}
+13.3 +11.8 91 +14 +14 1021.1 868.0 +13.8 +13.4
З 0.6
{1.7}
+12.7 +12.7 100 +13 +13 1021.0 867.9 +13.3 +12.7
СЗ 0.7
{1.4}
+12.2 +12.2 100 +12 +12 1020.9 867.8 +12.7 +12.2
С 0.4
{1.0}
+11.6 +11.6 100 +12 +12 1020.9 867.8 +12.2 +11.6
В 0.9
{1.7}
+11.3 -10.1 21 +12 +12 1021.0 867.9 +11.6 +11.3
В 1.1
{2.0}
+11.1 +11.1 100 +11 +11 1021.0 867.9 +11.3 +11.1
В 1.7
{2.8}
+11.1 +11.1 100 +10 +10 1020.9 867.8 +11.2 +11.0
В 1.5
{2.8}
+11.0 -7.6 26 +11 +11 1020.9 867.8 +11.1 +11.0
В 2.0
{3.4}
+10.8 +10.8 100 +9 +9 1021.0 867.9 +11.0 +10.8
В 1.6
{3.3}
+10.9 +10.9 100 +10 +10 1021.0 867.9 +10.9 +10.8
СВ 1.4
{2.8}
+11.0 +11.0 100 +10 +10 1021.0 867.9 +11.1 +10.9
В 1.3
{2.6}
+10.8 +10.8 100 +10 +10 1021.0 867.9 +11.1 +10.8
В 1.4
{3.1}
+11.0 -7.6 26 +11 +11 1021.0 867.9 +11.0 +10.8
В 1.3
{2.6}
+10.5 +10.5 100 +10 +10 1021.0 867.9 +11.0 +10.5
В 1.8
{3.4}
+10.6 +10.6 100 +9 +9 1021.0 867.9 +10.7 +10.5
В 1.6
{3.5}
+10.5 +10.5 100 +9 +9 1020.9 867.8 +10.6 +10.4
В 1.6
{3.5}
+10.6 +10.6 100 +9 +9 1020.8 867.7 +10.6 +10.4
В 1.8
{3.2}
+10.8 +10.8 100 +9 +9 1020.7 867.6 +10.9 +10.6
В 2.3
{4.6}
+11.0 +11.0 100 +9 +9 1020.7 867.6 +11.0 +10.7
В 2.2
{4.2}
+10.8 +10.8 100 +9 +9 1020.6 867.5 +10.9 +10.6
В 2.3
{4.3}
+10.8 +10.8 100 +9 +9 1020.6 867.5 +10.8 +10.7
В 2.4
{4.1}
+10.6 +10.6 100 +9 +9 1020.6 867.5 +10.9 +10.6
В 2.1
{4.6}
+10.5 +10.5 100 +9 +9 1020.5 867.4 +10.6 +10.4
В 2.6
{5.3}
+11.0 +11.0 100 +9 +9 1020.5 867.4 +11.0 +10.5
В 2.6
{4.5}
+10.9 +10.9 100 +9 +9 1020.2 867.2 +11.1 +10.9
В 2.6
{4.3}
+10.8 +10.8 100 +9 +9 1020.1 867.1 +10.9 +10.8
В 2.5
{4.8}
+10.7 +10.7 100 +9 +9 1020.0 867.0 +10.8 +10.7
В 2.3
{4.2}
+10.7 +10.7 100 +9 +9 1020.0 867.0 +10.8 +10.7
В 2.2
{4.7}
+10.6 +10.4 99 +9 +9 1019.9 866.9 +10.7 +10.6
В 2.2
{4.2}
+10.6 +10.3 98 +9 +9 1019.8 866.8 +10.7 +10.6
В 1.7
{3.9}
+10.3 +10.3 100 +9 +9 1019.7 866.7 +10.6 +10.3
В 2.4
{3.6}
+10.8 +8.7 87 +9 +9 1019.5 866.6 +10.9 +10.3
В 1.6
{3.3}
+10.1 +9.3 95 +9 +9 1019.2 866.3 +10.4 +10.1
В 1.9
{3.3}
+10.0 +9.2 95 +8 +8 1019.1 866.2 +10.1 +10.1
В 2.0
{4.2}
+9.9 +8.7 92 +8 +8 1019.0 866.1 +10.3 +10.0
В 2.6
{4.3}
+10.4 +7.8 84 +9 +9 1018.9 866.0 +10.4 +9.8
В 2.6
{4.6}
+10.2 +7.9 86 +8 +8 1018.7 865.9 +10.4 +10.2
В 2.0
{3.7}
+10.1 +8.7 91 +9 +9 1018.6 865.8 +10.2 +10.0
В 2.3
{4.5}
+10.1 +8.0 87 +8 +8 1018.6 865.8 +10.1 +9.9
В 2.2
{4.3}
+10.3 +8.4 88 +9 +9 1018.5 865.7 +10.3 +10.0
В 2.1
{4.2}
+10.3 +8.4 88 +9 +9 1018.4 865.6 +10.3 +10.2
В 3.0
{4.5}
+10.7 +6.8 77 +9 +9 1018.3 865.5 +10.7 +10.2
В 2.9
{5.0}
+10.8 +6.9 77 +9 +9 1018.3 865.5 +10.8 +10.6
В 2.9
{5.2}
+10.6 +6.9 78 +9 +9 1018.2 865.4 +10.8 +10.6
В 2.7
{4.7}
+10.6 +6.9 78 +9 +9 1018.1 865.3 +10.7 +10.5
В 2.4
{4.4}
+10.4 +6.7 78 +9 +9 1017.9 865.2 +10.6 +10.3
В 2.1
{4.5}
+10.0 +7.4 84 +8 +8 1017.9 865.2 +10.4 +10.0
В 1.5
{2.8}
+9.6 +8.7 94 +8 +8 1017.8 865.1 +10.0 +9.5
В 2.2
{3.8}
+10.1 +6.0 76 +9 +9 1017.7 865.0 +10.1 +9.5
В 2.0
{4.1}
+9.9 +6.9 82 +8 +8 1017.6 864.9 +10.4 +9.9
В 1.8
{3.5}
+10.0 +6.2 77 +9 +9 1017.6 864.9 +10.0 +9.8
В 2.3
{4.2}
+10.2 +5.8 74 +9 +9 1017.6 864.9 +10.3 +10.0
В 1.9
{4.0}
+10.2 +5.4 72 +9 +9 1017.5 864.8 +10.2 +9.9
В 2.2
{3.9}
+10.3 +5.4 72 +9 +9 1017.5 864.8 +10.4 +10.2
В 2.1
{4.4}
+10.2 +5.5 72 +9 +9 1017.4 864.7 +10.5 +10.2
В 1.4
{2.7}
+9.7 +6.5 81 +9 +9 1017.4 864.7 +10.2 +9.7
В 1.6
{3.0}
+9.7 +6.3 80 +9 +9 1017.3 864.6 +9.7 +9.6
В 2.3
{4.5}
+10.2 +4.3 67 +9 +9 1017.3 864.6 +10.1 +9.5
В 2.9
{4.7}
+10.6 +3.4 61 +9 +9 1017.4 864.7 +10.6 +10.1
В 2.1
{3.8}
+10.1 +3.9 66 +9 +9 1017.5 864.8 +10.6 +10.1
В 2.2
{3.8}
+9.9 +3.9 66 +8 +8 1017.5 864.8 +10.1 +9.8
В 2.5
{4.9}
+9.9 +3.8 66 +8 +8 1017.6 864.9 +10.0 +9.9
В 2.6
{4.3}
+10.1 +4.3 67 +8 +8 1017.5 864.8 +10.4 +9.9
В 2.6
{4.6}
+10.4 +3.2 61 +9 +9 1017.5 864.8 +10.4 +10.0
В 2.4
{4.3}
+10.2 +3.9 65 +9 +9 1017.5 864.8 +10.4 +10.2
В 2.3
{4.7}
+10.7 +3.3 60 +9 +9 1017.4 864.7 +10.7 +10.2
В 2.3
{4.0}
+11.0 +3.4 60 +10 +10 1017.4 864.7 +11.0 +10.6
В 2.2
{4.6}
+12.5 +2.2 49 +12 +12 1017.3 864.6 +12.5 +11.6
В 1.7
{3.7}
+13.4 +1.7 45 +13 +13 1017.3 864.6 +13.4 +12.5
В 1.5
{3.6}
+14.3 +1.7 42 +15 +15 1017.1 864.5 +14.3 +13.4
В 1.5
{3.5}
+15.0 +1.7 41 +15 +15 1017.1 864.5 +15.0 +14.3
ЮВ 1.2
{3.2}
+15.8 +3.2 43 +16 +16 1017.0 864.4 +15.8 +15.0
ЮЗ 1.0
{2.5}
+16.4 +3.2 41 +17 +17 1017.0 864.4 +16.4 +15.8
З 1.7
{3.6}
+18.0 +11.2 65 +19 +19 1016.8 864.2 +18.3 +17.7
З 1.7
{4.0}
+19.0 +9.8 55 +20 +20 1016.6 864.0 +19.3 +18.7
З 1.7
{3.6}
+20.7 +12.6 60 +24 +24 комфорт 1014.2 861.9 +21.1 +20.5
ЮЗ 1.8
{3.6}
+20.8 +14.4 67 +24 +24 комфорт 1014.2 861.9 +21.2 +20.6
З 1.9
{4.9}
+21.4 +12.7 58 +24 +24 комфорт 1014.3 862.0 +22.1 +21.2
З 1.7
{4.1}
+20.8 +12.8 60 +24 +24 комфорт 1014.3 862.0 +21.4 +20.8
З 1.9
{4.1}
+20.2 +13.8 67 +23 +23 комфорт 1014.5 862.2 +20.2 +19.4
З 1.9
{4.4}
+20.3 +12.2 60 +23 +23 комфорт 1014.5 862.2 +20.7 +20.2
З 1.8
{4.3}
+20.8 +12.5 59 +24 +24 комфорт 1014.5 862.2 +20.8 +20.0
З 1.9
{4.5}
+19.7 +11.7 60 +22 +22 комфорт 1014.5 862.2 +20.8 +19.8
В 1.2
{2.5}
+15.4 +15.4 100 +16 +16 1014.9 862.5 +15.5 +15.2
СВ 1.1
{1.7}
+15.4 +15.4 100 +16 +16 1014.5 862.2 +15.5 +15.4
В 1.1
{2.0}
+15.4 +15.4 100 +16 +16 1014.4 862.1 +15.5 +15.4
В 1.1
{2.4}
+15.6 +15.6 100 +16 +16 1014.5 862.2 +15.6 +15.4
В 1.2
{2.2}
+15.5 +15.5 100 +16 +16 1014.5 862.2 +15.6 +15.5
В 1.4
{2.7}
+15.5 -3.3 27 +16 +16 1014.5 862.2 +15.7 +15.3
В 1.9
{3.4}
+15.8 +15.8 100 +16 +16 1014.9 862.5 +15.9 +15.8
В 1.3
{3.1}
+15.5 -3.3 27 +16 +16 1014.9 862.5 +15.6 +15.5
В 1.3
{2.2}
+16.3 +16.3 100 +17 +17 1014.9 862.5 +16.3 +15.9
В 1.3
{2.7}
+16.5 +16.5 100 +17 +17 1014.9 862.5 +16.5 +16.4
В 1.5
{3.3}
+16.4 +16.2 99 +17 +17 1015.0 862.6 +16.5 +16.4
В 1.5
{3.4}
+15.9 +15.9 100 +16 +16 1015.0 862.6 +16.1 +15.9
В 1.7
{3.3}
+15.7 +15.6 99 +16 +16 1015.0 862.6 +15.9 +15.7
Местоположение метеостанции Сукок (Ташкентская область, Узбекистан): широта 41.25 долгота 69.79 высота над уровнем моря 0 м.
В архиве по умолчанию представлена погода в Сукоке за последние 1-2 суток. Обновление информации о фактической погоде в базе происходит ежечасно! Архивные данные за месяц целиком и за предыдущие месяцы Вы можете получить, выбрав интересующий диапазон дат из раскрывающегося списка и нажав кнопку "Ввод!".
*Определитесь, кто Вы:
Внимание! Время в таблицах - местное (без учета летнего времени). Для получения всемирного времени необходимо вычесть поправку, которая равна 5 ч.
Смотрите также архив погоды на ближайших метеорологических станциях:
Партнеры нашего сайта:      
Пояснения к столбцам:
  • Ветер - указаны скорость ветра в м/с - средняя за 10 мин, порывы в срок и между сроками (в фигурных скобках) и направление, откуда дует ветер: С - северный,
  • СВ - северо-восточный, В - восточный, ЮВ - юго-восточный, Ю - южный, ЮЗ - юго-западный, З - западный, СЗ - северо-западный.
  • Видимость - горизонтальная дальность видимости в метрах или километрах. При видимости от 1 до 10 км при отсутствии осадков обычно наблюдается дымка, при ухудшении видимости до 1 км и менее - туман. В сухую погоду видимость может ухудшаться дымом, пылью или мглою.
  • Явления - указаны атмосферные явления, наблюдавшиеся в срок или в последний час перед сроком.
  • Солнечная радиация - мощность потока солнечного излучения на поверхность земли и предметов в Вт/м2.
  • T - Температура воздуха - температура, измеренная на высоте 2 м над землей.
  • Td - Температура точки росы - температура, при понижении до которой содержащийся в воздухе водяной пар достигнет насыщения.
  • f - Относительная влажность воздуха - влажноcть воздуха, измеренная на высоте 2 м над землей.
  • Te - Эффективная температура - температура, которую ощущает одетый по сезону человек в тени. Характеристика душности погоды. При расчете учитывается влияние влажности воздуха и скорости ветра на теплоощущения человека.
  • Tes - Эффективная температура на солнце - температура, которую ощущает человек, с поправкой на солнечный нагрев. Характеристика знойности погоды. Зависит от высоты солнца над горизонтом, облачности и скорости ветра. Ночью, в пасмурную погоду, а также при ветре 12 м/с и более поправка равна нулю.
  • P - Атмосферное давление - приведенное к уровню моря атмосферное давление.
  • Po - Атмосферное давление - измеренное на уровне метеостанции атмосферное давление.
  • Tmin - Минимальная температура - минимум температуры воздуха на высоте 2 м над землей.
  • Tmax - Максимальная температура - максимум температуры воздуха на высоте 2 м над землей.
  • R - Количество осадков - Количество выпавших осадков за период времени, мм. При наведении курсора мыши на число - период времени, за который выпало указанное количество осадков.